FW9020 Weather Reports


time (UTC)temp
C
wind
direction
speed
KPH
gust
KPH
rain 1hr
cm
rain 24hr
cm
rain mn
cm
humidity
%
barometer
mb
20260509211403 17 155 4.8 8.0 0.00 0.00 0.00 74 1001.7
20260509210900 17 228 4.8 4.8 0.00 0.00 0.00 75 1001.7
20260509210357 16 202 3.2 4.8 0.00 0.00 0.00 75 1002.0
20260509205852 17 191 4.8 4.8 0.00 0.00 0.00 74 1002.0
20260509205346 17 193 1.6 3.2 0.00 0.00 0.00 75 1002.0
20260509204844 17 173 1.6 4.8 0.00 0.00 0.00 75 1002.4
20260509204339 17 230 3.2 3.2 0.00 0.00 0.00 76 1002.4
20260509203836 17 242 6.4 9.7 0.00 0.00 0.00 75 1002.4
20260509203333 17 251 0.0 1.6 0.00 0.00 0.00 76 1002.7
20260509202829 17 230 4.8 8.0 0.00 0.00 0.00 75 1002.4
20260509202326 17 237 1.6 3.2 0.00 0.00 0.00 75 1002.4
20260509201825 17 239 3.2 3.2 0.00 0.00 0.00 74 1002.4
20260509201322 17 235 4.8 4.8 0.00 0.00 0.00 75 1002.7
20260509200818 17 286 11.3 12.9 0.00 0.00 0.00 72 1002.7
20260509200314 17 228 1.6 1.6 0.00 0.00 0.00 72 1002.7
20260509195811 17 227 3.2 3.2 0.00 0.00 0.00 71 1002.4
20260509195311 17 238 3.2 4.8 0.00 0.00 0.00 72 1002.4
20260509194811 18 222 4.8 4.8 0.00 0.00 0.00 71 1002.7
20260509194307 18 226 8.0 9.7 0.00 0.00 0.00 70 1002.4
20260509193804 18 269 11.3 12.9 0.00 0.00 0.00 69 1002.7
20260509193304 18 248 9.7 12.9 0.00 0.00 0.00 70 1002.7
20260509192800 18 331 4.8 4.8 0.00 0.00 0.00 70 1002.7
20260509192256 18 232 3.2 4.8 0.00 0.00 0.00 69 1002.7
20260509191750 17 255 6.4 8.0 0.00 0.00 0.00 70 1003.1
20260509190928 17 176 8.0 12.9 0.00 0.00 0.00 70 1003.4
20260509190426 17 176 8.0 12.9 0.00 0.00 0.00 70 1003.4
20260509185923 17 166 8.0 14.5 0.00 0.00 0.00 71 1003.1
20260509185421 17 239 6.4 8.0 0.00 0.00 0.00 69 1003.1
20260509184917 17 168 6.4 9.7 0.00 0.00 0.00 70 1003.1
20260509184414 18 169 8.0 11.3 0.00 0.00 0.00 69 1003.1
20260509183911 18 195 4.8 4.8 0.00 0.00 0.00 70 1003.4
20260509183405 18 266 14.5 20.9 0.00 0.00 0.00 70 1003.4
20260509182902 18 226 6.4 9.7 0.00 0.00 0.00 69 1003.4
20260509182359 18 201 9.7 12.9 0.00 0.00 0.00 69 1003.4
20260509181856 18 251 11.3 12.9 0.00 0.00 0.00 71 1003.4
20260509181353 18 222 12.9 16.1 0.00 0.00 0.00 73 1003.4
20260509180851 18 202 4.8 8.0 0.00 0.00 0.00 74 1003.7
20260509180346 17 236 6.4 11.3 0.00 0.00 0.00 73 1003.7
20260509175843 17 187 0.0 1.6 0.00 0.00 0.00 73 1003.7
20260509175340 17 239 6.4 9.7 0.00 0.00 0.00 74 1003.7
20260509174836 17 157 20.9 27.4 0.00 0.00 0.00 71 1003.7
20260509174332 18 232 3.2 4.8 0.00 0.00 0.00 73 1003.7
20260509173827 18 241 11.3 11.3 0.00 0.00 0.00 71 1004.1
20260509173323 17 243 3.2 3.2 0.00 0.00 0.00 73 1004.1
20260509172820 17 211 6.4 8.0 0.00 0.00 0.00 73 1004.1
20260509172316 17 189 6.4 8.0 0.00 0.00 0.00 73 1004.1
20260509171812 17 165 9.7 12.9 0.00 0.00 0.00 74 1004.4
20260509171308 17 233 3.2 3.2 0.00 0.00 0.00 74 1004.4
20260509170805 17 233 3.2 3.2 0.00 0.00 0.00 73 1004.4
20260509170301 17 144 11.3 14.5 0.00 0.00 0.00 70 1004.4
20260509165800 17 150 6.4 8.0 0.00 0.00 0.00 71 1004.4
20260509165255 17 196 6.4 8.0 0.00 0.00 0.00 72 1004.1
20260509164751 17 158 6.4 8.0 0.00 0.00 0.00 72 1004.4
20260509164248 17 261 6.4 8.0 0.00 0.00 0.00 72 1004.4
20260509163745 17 135 4.8 9.7 0.00 0.00 0.00 72 1004.4
20260509163241 16 196 4.8 4.8 0.00 0.00 0.00 76 1004.4
20260509162740 16 255 11.3 12.9 0.00 0.00 0.00 75 1004.4
20260509162233 17 262 6.4 9.7 0.00 0.00 0.00 73 1004.8
20260509161729 17 239 3.2 4.8 0.00 0.00 0.00 73 1004.8
20260509161226 17 147 8.0 11.3 0.00 0.00 0.00 72 1004.8
20260509160721 17 183 4.8 4.8 0.00 0.00 0.00 74 1005.1
20260509160218 17 220 6.4 8.0 0.00 0.00 0.00 75 1004.8
20260509155713 17 186 6.4 12.9 0.00 0.00 0.00 75 1004.8
20260509155210 17 210 6.4 8.0 0.00 0.00 0.00 73 1004.8
20260509154706 17 173 3.2 4.8 0.00 0.00 0.00 75 1004.8
20260509154203 16 199 8.0 9.7 0.00 0.00 0.00 76 1004.8
20260509153700 16 230 0.0 1.6 0.00 0.00 0.00 79 1004.8
20260509153156 16 169 8.0 12.9 0.00 0.00 0.00 79 1005.1
20260509152652 16 183 8.0 9.7 0.00 0.00 0.00 78 1005.1
20260509152149 16 174 4.8 8.0 0.00 0.00 0.00 77 1005.1
20260509151646 16 213 3.2 3.2 0.00 0.00 0.00 76 1005.1
20260509151143 15 187 4.8 8.0 0.00 0.00 0.00 79 1004.8
20260509150641 16 267 6.4 8.0 0.00 0.00 0.00 78 1005.4
20260509150139 16 243 1.6 3.2 0.00 0.00 0.00 79 1005.1
20260509145635 15 277 6.4 8.0 0.00 0.00 0.00 78 1005.4
20260509145130 15 188 8.0 9.7 0.00 0.00 0.00 80 1005.4
20260509144627 15 28 4.8 4.8 0.00 0.00 0.00 80 1005.4
20260509144124 15 224 1.6 1.6 0.00 0.00 0.00 81 1005.4
20260509143621 15 170 6.4 8.0 0.00 0.00 0.00 82 1005.4
20260509143119 15 169 4.8 8.0 0.00 0.00 0.00 82 1005.4
20260509142614 15 208 6.4 8.0 0.00 0.00 0.00 84 1005.1
20260509142111 15 228 4.8 4.8 0.00 0.00 0.00 83 1005.4
20260509141607 15 182 9.7 11.3 0.00 0.00 0.00 82 1005.4
20260509141103 15 235 3.2 3.2 0.00 0.00 0.00 83 1005.4
20260509140600 15 263 8.0 9.7 0.00 0.00 0.00 84 1005.4
20260509140058 15 177 6.4 9.7 0.00 0.00 0.00 84 1005.4
20260509135555 15 197 4.8 4.8 0.00 0.00 0.00 84 1005.4
20260509135053 15 235 3.2 3.2 0.00 0.00 0.00 83 1005.4
20260509134549 15 230 3.2 3.2 0.00 0.00 0.00 84 1005.4
20260509134047 15 226 3.2 3.2 0.00 0.00 0.00 85 1005.8
20260509133544 14 233 3.2 4.8 0.00 0.00 0.00 86 1005.8
20260509133042 13 234 11.3 12.9 0.00 0.00 0.00 87 1005.8
20260509132540 13 224 4.8 4.8 0.00 0.00 0.00 87 1005.8
20260509132038 13 216 4.8 4.8 0.00 0.00 0.00 87 1005.8
20260509131533 13 251 1.6 3.2 0.00 0.00 0.00 88 1005.8
20260509131031 12 212 3.2 3.2 0.00 0.00 0.00 88 1005.8
20260509130526 12 193 8.0 9.7 0.00 0.00 0.00 88 1005.8
20260509130023 12 211 4.8 4.8 0.00 0.00 0.00 89 1005.8
20260509125520 12 197 4.8 4.8 0.00 0.00 0.00 89 1006.1
20260509125016 12 177 6.4 8.0 0.00 0.00 0.00 89 1005.8
20260509124513 11 193 4.8 4.8 0.00 0.00 0.00 89 1005.8
20260509124010 11 158 9.7 11.3 0.00 0.00 0.00 89 1006.1
20260509123508 11 225 3.2 4.8 0.00 0.00 0.00 90 1005.8
20260509123004 11 218 4.8 8.0 0.00 0.00 0.00 90 1005.8
20260509122500 11 181 4.8 8.0 0.00 0.00 0.00 90 1005.8
20260509121957 11 192 4.8 4.8 0.00 0.00 0.00 90 1006.1
20260509121454 11 218 3.2 3.2 0.00 0.00 0.00 90 1006.1
20260509120952 11 216 1.6 1.6 0.00 0.00 0.00 91 1006.1
20260509120450 11 194 1.6 3.2 0.00 0.00 0.00 90 1006.1
20260509115948 10 224 3.2 3.2 0.00 0.00 0.00 91 1005.8
20260509115444 10 199 3.2 3.2 0.00 0.00 0.00 91 1006.1
20260509114942 10 172 6.4 8.0 0.00 0.00 0.00 92 1005.8
20260509114440 10 197 4.8 4.8 0.00 0.00 0.00 93 1005.8
20260509113939 10 150 4.8 8.0 0.00 0.00 0.00 93 1005.8
20260509113436 9 182 4.8 4.8 0.00 0.00 0.00 93 1005.8
20260509112933 9 217 0.0 1.6 0.00 0.00 0.00 93 1005.8
20260509112430 8 213 3.2 3.2 0.00 0.00 0.00 93 1005.8
20260509111927 8 211 3.2 3.2 0.00 0.00 0.00 93 1005.8
20260509111425 8 222 0.0 0.0 0.00 0.00 0.00 94 1006.1
20260509110922 8 226 0.0 0.0 0.00 0.00 0.00 94 1006.1
20260509110417 8 214 3.2 3.2 0.00 0.00 0.00 94 1006.1
20260509105916 7 223 0.0 1.6 0.00 0.00 0.00 94 1005.8
20260509105414 7 203 1.6 3.2 0.00 0.00 0.00 94 1005.8
20260509104911 7 201 3.2 3.2 0.00 0.00 0.00 94 1006.1
20260509104408 7 196 3.2 3.2 0.00 0.00 0.00 94 1006.1
20260509103905 7 215 1.6 1.6 0.00 0.00 0.00 93 1006.1
20260509103402 7 218 1.6 1.6 0.00 0.00 0.00 93 1006.4
20260509102901 7 218 1.6 1.6 0.00 0.00 0.00 93 1006.4
20260509102358 7 219 1.6 1.6 0.00 0.00 0.00 92 1006.4
20260509101853 7 223 0.0 1.6 0.00 0.00 0.00 93 1006.4
20260509101349 7 225 0.0 1.6 0.00 0.00 0.00 92 1006.4
20260509100848 7 225 1.6 1.6 0.00 0.00 0.00 90 1006.1
20260509100344 7 224 0.0 0.0 0.00 0.00 0.00 90 1006.1
20260509095841 7 220 0.0 0.0 0.00 0.00 0.00 89 1006.1
20260509095338 7 221 0.0 1.6 0.00 0.00 0.00 89 1006.1
20260509094836 7 222 0.0 0.0 0.00 0.00 0.00 89 1006.1
20260509094332 7 223 0.0 1.6 0.00 0.00 0.00 89 1006.1
20260509093830 7 223 1.6 1.6 0.00 0.00 0.00 89 1006.1
20260509093326 6 221 1.6 1.6 0.00 0.00 0.00 88 1006.1
20260509092825 6 226 0.0 0.0 0.00 0.00 0.00 88 1006.1
20260509092323 6 226 0.0 0.0 0.00 0.00 0.00 87 1006.1
20260509091820 6 227 0.0 0.0 0.00 0.00 0.00 87 1006.4
20260509091317 7 227 0.0 0.0 0.00 0.00 0.00 86 1006.1
20260509090814 7 227 0.0 0.0 0.00 0.00 0.00 85 1006.1
20260509090312 7 225 0.0 1.6 0.00 0.00 0.00 85 1006.1
20260509085809 7 220 1.6 1.6 0.00 0.00 0.00 84 1006.4
20260509085307 7 222 1.6 1.6 0.00 0.00 0.00 85 1006.4
20260509084803 7 233 0.0 0.0 0.00 0.00 0.00 84 1006.4
20260509084300 7 235 0.0 0.0 0.00 0.00 0.00 84 1006.1
20260509083757 7 229 0.0 0.0 0.00 0.00 0.00 84 1006.4
20260509083254 7 221 1.6 1.6 0.00 0.00 0.00 84 1006.4
20260509082750 6 217 3.2 3.2 0.00 0.00 0.00 84 1006.4
20260509082247 6 215 1.6 1.6 0.00 0.00 0.00 83 1006.4
20260509081744 6 219 0.0 0.0 0.00 0.00 0.00 83 1006.4
20260509081242 6 219 0.0 1.6 0.00 0.00 0.00 82 1006.1
20260509080740 6 219 0.0 1.6 0.00 0.00 0.00 82 1006.4
20260509080237 6 222 0.0 1.6 0.00 0.00 0.00 82 1006.4
20260509075735 6 208 1.6 1.6 0.00 0.00 0.00 82 1006.4
20260509075232 6 209 1.6 1.6 0.00 0.00 0.00 82 1006.4
20260509074729 6 219 1.6 1.6 0.00 0.00 0.00 82 1006.4
20260509074227 6 215 1.6 1.6 0.00 0.00 0.00 82 1006.4
20260509073723 5 219 0.0 1.6 0.00 0.00 0.00 81 1006.4
20260509073219 5 216 1.6 1.6 0.00 0.00 0.00 82 1006.8
20260509072716 5 220 0.0 1.6 0.00 0.00 0.00 83 1006.4
20260509072213 5 218 1.6 1.6 0.00 0.00 0.00 84 1006.8
20260509071709 5 218 1.6 1.6 0.00 0.00 0.00 84 1006.4
20260509071207 5 222 0.0 1.6 0.00 0.00 0.00 84 1006.8
20260509070704 5 219 1.6 1.6 0.00 0.00 0.00 82 1006.8
20260509070200 5 224 0.0 0.0 0.00 0.00 0.00 80 1006.8
20260509065656 6 224 0.0 0.0 0.00 0.00 0.00 79 1006.8
20260509065152 6 224 0.0 1.6 0.00 0.00 0.00 79 1007.1
20260509064649 6 236 0.0 0.0 0.00 0.00 0.00 77 1006.8
20260509064147 6 231 0.0 0.0 0.00 0.00 0.00 75 1006.8
20260509063644 6 222 1.6 1.6 0.00 0.00 0.00 76 1007.1
20260509063140 6 223 0.0 1.6 0.00 0.00 0.00 76 1007.1
20260509062637 6 221 0.0 1.6 0.00 0.00 0.00 76 1007.5
20260509062134 6 215 1.6 1.6 0.00 0.00 0.00 76 1007.5
20260509061631 7 224 1.6 1.6 0.00 0.00 0.00 75 1007.5
20260509061129 7 225 0.0 1.6 0.00 0.00 0.00 74 1007.5
20260509060626 7 229 1.6 1.6 0.00 0.00 0.00 72 1007.8
20260509060122 7 205 3.2 3.2 0.00 0.00 0.00 73 1007.5
20260509055618 7 218 3.2 3.2 0.00 0.00 0.00 72 1007.8
20260509055113 7 222 0.0 1.6 0.00 0.00 0.00 73 1007.5
20260509054611 7 223 0.0 1.6 0.00 0.00 0.00 74 1007.8
20260509054108 7 227 1.6 1.6 0.00 0.00 0.00 73 1007.8
20260509053607 7 218 1.6 1.6 0.00 0.00 0.00 72 1007.8
20260509053103 7 222 1.6 1.6 0.00 0.00 0.00 70 1007.8
20260509052601 7 218 1.6 1.6 0.00 0.00 0.00 69 1007.8
20260509052059 7 228 0.0 0.0 0.00 0.00 0.00 69 1008.1
20260509051556 7 204 1.6 3.2 0.00 0.00 0.00 68 1008.1
20260509051053 8 229 1.6 3.2 0.00 0.00 0.00 68 1008.1
20260509050550 8 216 4.8 4.8 0.00 0.00 0.00 67 1008.1
20260509050046 7 188 6.4 8.0 0.00 0.00 0.00 68 1008.1
20260509045544 7 185 1.6 3.2 0.00 0.00 0.00 69 1008.1
20260509045041 8 212 4.8 4.8 0.00 0.00 0.00 67 1008.1
20260509044538 7 193 8.0 9.7 0.00 0.00 0.00 66 1008.5
20260509044036 7 182 3.2 4.8 0.00 0.00 0.00 67 1008.5
20260509043532 7 216 1.6 3.2 0.00 0.00 0.00 68 1008.5
20260509043027 7 226 0.0 0.0 0.00 0.00 0.00 67 1008.5
20260509042524 7 221 0.0 1.6 0.00 0.00 0.00 66 1008.5
20260509042020 7 210 0.0 1.6 0.00 0.00 0.00 66 1008.5
20260509041517 7 225 0.0 0.0 0.00 0.00 0.00 65 1008.5
20260509041015 7 221 1.6 1.6 0.00 0.00 0.00 64 1008.5
20260509040513 7 223 0.0 1.6 0.00 0.00 0.00 64 1008.8
20260509040009 7 211 0.0 1.6 0.00 0.10 0.10 64 1008.8
20260509035507 7 228 0.0 0.0 0.00 0.10 0.10 64 1008.8
20260509035003 7 229 1.6 1.6 0.00 0.10 0.10 64 1008.5
20260509034502 6 223 0.0 0.0 0.00 0.10 0.10 67 1008.8
20260509033958 6 221 0.0 0.0 0.00 0.10 0.10 71 1008.8
20260509033454 6 221 0.0 1.6 0.00 0.10 0.10 72 1008.8
20260509032951 6 221 0.0 0.0 0.00 0.10 0.10 73 1008.8
20260509032449 6 221 0.0 0.0 0.00 0.10 0.10 76 1008.8
20260509031946 6 221 0.0 0.0 0.00 0.10 0.10 80 1008.8
20260509031443 6 221 0.0 0.0 0.00 0.10 0.10 78 1008.8
20260509030941 6 221 0.0 0.0 0.00 0.10 0.10 78 1008.8
20260509030439 6 221 0.0 1.6 0.00 0.10 0.10 75 1009.2
20260509025935 7 221 1.6 1.6 0.00 0.10 0.10 75 1009.2
20260509025431 6 221 1.6 1.6 0.00 0.10 0.10 74 1008.8
20260509024926 7 221 0.0 0.0 0.00 0.10 0.10 75 1009.2
20260509024423 7 221 0.0 0.0 0.00 0.10 0.10 73 1009.2
20260509023920 7 221 0.0 0.0 0.00 0.10 0.10 71 1009.2
20260509023417 7 221 0.0 0.0 0.00 0.10 0.10 75 1009.2
20260509022913 7 221 0.0 0.0 0.00 0.10 0.10 72 1009.2
20260509022411 7 221 0.0 1.6 0.00 0.10 0.10 75 1009.2
20260509021908 6 221 0.0 0.0 0.00 0.10 0.10 73 1009.2
20260509021405 6 221 0.0 0.0 0.00 0.10 0.10 77 1008.8
20260509020902 6 221 0.0 1.6 0.00 0.10 0.10 82 1008.8
20260509020401 6 221 1.6 1.6 0.00 0.10 0.10 82 1009.2
20260509015857 6 221 0.0 0.0 0.00 0.10 0.10 83 1009.2
20260509015356 6 221 0.0 0.0 0.00 0.10 0.10 81 1008.8
20260509014852 6 221 0.0 0.0 0.00 0.10 0.10 82 1008.8
20260509014349 7 221 0.0 0.0 0.00 0.10 0.10 78 1008.8
20260509013845 7 221 0.0 0.0 0.00 0.10 0.10 75 1008.8
20260509013342 7 221 0.0 1.6 0.00 0.10 0.10 74 1008.8
20260509012838 7 221 0.0 1.6 0.00 0.10 0.10 75 1008.8
20260509012335 8 222 0.0 0.0 0.00 0.10 0.10 75 1009.2
20260509011832 8 221 0.0 0.0 0.00 0.10 0.10 73 1008.8
20260509011329 8 221 0.0 0.0 0.00 0.10 0.10 68 1008.8
20260509010827 8 221 0.0 0.0 0.00 0.10 0.10 66 1008.8
20260509010325 8 222 0.0 0.0 0.00 0.10 0.10 68 1008.8
20260509005821 9 222 0.0 0.0 0.00 0.10 0.10 67 1008.8
20260509005319 9 221 0.0 0.0 0.00 0.10 0.10 67 1008.8
20260509004814 9 222 0.0 0.0 0.00 0.10 0.10 64 1008.8
20260509004310 10 226 0.0 0.0 0.00 0.10 0.10 65 1008.5
20260509003808 9 232 0.0 0.0 0.00 0.10 0.10 61 1008.5
20260509003306 9 233 0.0 0.0 0.00 0.10 0.10 62 1008.8
20260509002803 10 233 0.0 0.0 0.00 0.10 0.10 61 1008.8
20260509002300 10 233 0.0 0.0 0.00 0.10 0.10 60 1008.8
20260509001758 10 234 0.0 1.6 0.00 0.10 0.10 59 1008.5
20260509001254 11 235 0.0 0.0 0.00 0.10 0.10 56 1008.5
20260509000751 12 236 0.0 1.6 0.00 0.10 0.10 54 1008.5
20260509000248 12 232 0.0 0.0 0.00 0.10 0.10 53 1008.5
20260508235745 13 235 0.0 0.0 0.00 0.10 0.10 53 1008.5
20260508235242 13 236 0.0 1.6 0.00 0.10 0.10 50 1008.5
20260508234739 13 231 1.6 1.6 0.00 0.10 0.10 49 1008.5
20260508234235 13 206 3.2 4.8 0.00 0.10 0.10 49 1008.5
20260508233729 13 234 0.0 0.0 0.00 0.10 0.10 49 1008.5
20260508233227 13 241 4.8 4.8 0.00 0.10 0.10 50 1008.5
20260508232724 13 208 1.6 3.2 0.00 0.10 0.10 49 1008.5
20260508232220 13 247 1.6 1.6 0.00 0.10 0.10 51 1008.5
20260508231719 13 236 1.6 3.2 0.00 0.10 0.10 53 1008.5
20260508231215 13 206 3.2 4.8 0.00 0.10 0.10 49 1008.5
20260508230712 13 230 3.2 3.2 0.00 0.10 0.10 51 1008.5
20260508230208 13 217 4.8 8.0 0.00 0.10 0.10 51 1008.5
20260508225706 13 200 4.8 8.0 0.00 0.10 0.10 51 1008.5
20260508225202 13 191 4.8 4.8 0.00 0.10 0.10 51 1008.5
20260508224700 14 195 9.7 12.9 0.00 0.10 0.10 49 1008.5
20260508224157 15 240 1.6 1.6 0.00 0.10 0.10 49 1008.5
20260508223655 15 222 6.4 8.0 0.00 0.10 0.10 50 1008.5
20260508223152 15 240 1.6 1.6 0.00 0.10 0.10 50 1008.5
20260508222649 15 215 3.2 3.2 0.00 0.10 0.10 51 1008.5
20260508222147 15 185 3.2 4.8 0.00 0.10 0.10 49 1008.5
20260508221643 15 264 4.8 4.8 0.00 0.10 0.10 52 1008.5
20260508221138 15 224 1.6 1.6 0.00 0.10 0.10 51 1008.5
20260508220635 15 231 1.6 3.2 0.00 0.10 0.10 55 1008.8
20260508220132 14 228 1.6 1.6 0.00 0.10 0.10 55 1008.5
20260508215628 13 235 1.6 1.6 0.00 0.10 0.10 55 1008.5
20260508215125 13 191 4.8 8.0 0.00 0.10 0.10 56 1008.8
20260508214622 13 216 4.8 8.0 0.00 0.10 0.10 55 1008.5
20260508214119 13 198 4.8 8.0 0.00 0.10 0.10 55 1008.5
20260508213616 13 220 6.4 9.7 0.00 0.10 0.10 59 1008.5
20260508213112 13 164 8.0 9.7 0.00 0.10 0.10 56 1008.5
20260508212609 13 222 1.6 3.2 0.00 0.10 0.10 58 1008.5
20260508212105 13 175 4.8 8.0 0.00 0.10 0.10 57 1008.5